Precipitable_Water
0.66 0.54 0.42 0.60 0.66 0.66 0.66 0.70 0.70 0.80 0.94 0.87 0.85 0.83 0.92 1.04 1.04 1.03 1.06 1.08 1.09 1.10 1.18 1.27 1.34 1.39 1.41 1.45 1.48 1.45 1.51 1.61 1.66 1.60 1.58 1.62 1.64 1.82 1.97 2.09 2.25 2.22 2.17 2.18
0.59 0.46 0.56 0.65 0.67 0.66 0.72 0.71 0.71 0.83 0.94 0.91 0.88 0.82 0.92 1.04 1.04 1.06 1.06 1.08 1.07 1.12 1.14 1.27 1.31 1.34 1.35 1.36 1.41 1.50 1.53 1.58 1.61 1.62 1.60 1.66 1.71 1.80 1.95 2.03 2.10 2.10 2.09 2.10
0.53 0.50 0.64 0.63 0.60 0.66 0.71 0.70 0.71 0.71 0.86 0.94 0.87 0.75 0.83 0.98 1.09 1.12 1.11 1.12 1.15 1.14 1.15 1.22 1.26 1.25 1.35 1.35 1.34 1.36 1.42 1.49 1.56 1.62 1.71 1.71 1.76 1.76 1.73 1.84 1.93 1.97 2.09 2.08
0.49 0.58 0.58 0.56 0.55 0.66 0.62 0.79 0.79 0.77 0.72 0.59 0.85 0.54 0.74 0.85 0.89 0.95 1.00 1.02 1.08 1.13 1.21 1.26 1.29 1.38 1.28 1.28 1.35 1.40 1.47 1.53 1.59 1.71 1.68 1.64 1.58 1.56 1.71 1.81 1.90 1.90 1.89 1.86
0.34 0.45 0.55 0.53 0.55 0.70 0.68 0.81 0.80 0.78 0.71 0.69 0.69 0.60 0.62 0.79 0.73 0.82 0.92 1.01 1.09 1.11 1.15 1.19 1.29 1.32 1.35 1.40 1.40 1.46 1.47 1.53 1.63 1.77 1.82 1.83 1.77 1.83 1.91 1.98 1.98 2.00 1.97 1.96
0.38 0.50 0.51 0.53 0.52 0.68 0.78 0.74 0.74 0.75 0.69 0.52 0.61 0.59 0.51 0.60 0.69 0.79 0.90 0.99 1.04 1.04 1.13 1.24 1.30 1.36 1.39 1.43 1.44 1.43 1.43 1.53 1.61 1.76 1.89 1.97 1.90 2.03 1.85 1.92 1.95 1.99 2.02 2.02
0.29 0.37 0.46 0.51 0.43 0.57 0.70 0.64 0.50 0.47 0.47 0.43 0.64 0.57 0.51 0.65 0.75 0.84 0.86 0.90 1.01 1.09 1.18 1.23 1.24 1.27 1.34 1.41 1.46 1.40 1.51 1.59 1.75 1.84 1.84 1.97 1.96 1.83 1.72 1.95 1.92 1.96 1.84 1.96
0.18 0.24 0.41 0.49 0.46 0.53 0.63 0.61 0.51 0.40 0.40 0.45 0.62 0.44 0.47 0.67 0.81 0.89 0.97 1.02 1.00 1.01 1.19 1.26 1.29 1.43 1.39 1.44 1.38 1.41 1.53 1.55 1.63 1.77 1.95 1.91 2.04 1.70 1.78 1.68 1.65 1.63 1.69 1.68
0.15 0.21 0.40 0.50 0.57 0.54 0.52 0.50 0.65 0.53 0.56 0.47 0.49 0.52 0.63 0.71 0.73 0.82 0.89 0.98 0.95 1.04 1.19 1.25 1.27 1.31 1.38 1.40 1.40 1.49 1.58 1.61 1.72 1.86 1.99 2.08 2.04 1.76 1.57 1.70 1.67 1.75 1.83 1.89
0.17 0.16 0.34 0.44 0.52 0.55 0.46 0.54 0.46 0.52 0.39 0.37 0.40 0.45 0.46 0.57 0.63 0.74 0.84 0.91 1.00 1.15 1.20 1.19 1.19 1.27 1.23 1.36 1.50 1.57 1.65 1.65 1.84 2.00 2.05 1.96 1.70 1.51 1.50 1.53 1.63 1.64 1.64 1.64
0.17 0.17 0.26 0.38 0.41 0.43 0.51 0.45 0.44 0.49 0.49 0.39 0.36 0.41 0.57 0.56 0.65 0.70 0.82 0.89 0.99 1.01 1.09 1.10 1.10 1.26 1.27 1.39 1.49 1.49 1.58 1.67 1.79 1.88 1.75 1.54 1.41 1.44 1.47 1.50 1.50 1.45 1.42 1.40
0.18 0.17 0.17 0.28 0.40 0.45 0.46 0.39 0.38 0.34 0.35 0.44 0.44 0.37 0.61 0.64 0.70 0.76 0.78 0.88 1.01 1.06 1.12 1.09 1.18 1.20 1.25 1.41 1.44 1.43 1.55 1.58 1.43 1.38 1.23 1.11 1.10 1.17 1.19 1.19 1.25 1.26 1.21 1.22
0.20 0.15 0.14 0.23 0.30 0.37 0.33 0.37 0.43 0.45 0.46 0.41 0.39 0.34 0.58 0.71 0.69 0.75 0.78 0.84 1.04 1.06 1.11 1.13 1.16 1.18 1.22 1.33 1.42 1.46 1.33 1.23 1.15 1.03 0.99 1.05 1.12 1.16 1.19 1.23 1.25 1.22 1.16 1.17
0.22 0.18 0.16 0.15 0.23 0.31 0.33 0.38 0.41 0.40 0.35 0.39 0.39 0.37 0.47 0.61 0.64 0.70 0.75 0.82 0.95 1.05 1.10 1.10 1.15 1.29 1.35 1.37 1.30 1.23 1.15 1.06 0.99 1.01 1.06 1.09 1.13 1.15 1.18 1.21 1.21 1.22 1.23 1.18
0.23 0.17 0.18 0.21 0.25 0.28 0.28 0.31 0.34 0.35 0.39 0.40 0.43 0.44 0.48 0.53 0.61 0.69 0.75 0.80 0.88 0.98 1.09 1.15 1.18 1.26 1.27 1.19 1.18 1.15 1.03 0.99 1.06 1.10 1.12 1.16 1.18 1.20 1.20 1.16 1.17 1.19 1.21 1.25
0.25 0.20 0.20 0.19 0.24 0.27 0.29 0.33 0.32 0.33 0.40 0.44 0.45 0.47 0.59 0.59 0.66 0.70 0.73 0.78 0.86 0.98 1.04 1.12 1.09 1.11 1.07 1.08 1.11 1.05 1.01 1.07 1.17 1.15 1.17 1.21 1.24 1.23 1.18 1.16 1.16 1.15 1.16 1.18
0.39 0.26 0.22 0.19 0.26 0.27 0.24 0.28 0.29 0.30 0.39 0.43 0.40 0.50 0.64 0.61 0.62 0.68 0.70 0.79 0.82 0.95 1.03 1.13 1.04 0.98 1.08 1.16 1.12 1.01 1.07 1.17 1.18 1.20 1.28 1.34 1.31 1.22 1.16 1.15 1.12 1.08 1.05 1.04
0.44 0.41 0.34 0.25 0.27 0.19 0.29 0.30 0.33 0.32 0.38 0.46 0.51 0.57 0.64 0.64 0.75 0.79 0.85 0.83 0.83 1.01 1.17 1.32 1.13 1.10 1.17 1.17 1.12 1.14 1.16 1.19 1.22 1.27 1.34 1.39 1.36 1.24 1.16 1.10 1.03 0.96 0.92 0.84
0.53 0.45 0.37 0.28 0.26 0.30 0.34 0.36 0.36 0.36 0.32 0.45 0.50 0.63 0.70 0.73 0.79 0.79 0.88 0.94 0.96 1.10 1.30 1.42 1.36 1.25 1.29 1.28 1.21 1.22 1.23 1.31 1.33 1.35 1.38 1.38 1.28 1.14 1.10 1.01 0.90 0.77 0.68 0.63
0.59 0.52 0.42 0.38 0.30 0.25 0.35 0.51 0.63 0.56 0.27 0.46 0.56 0.65 0.71 0.75 0.58 0.63 0.83 1.00 1.07 1.23 1.36 1.38 1.43 1.38 1.33 1.25 1.32 1.30 1.31 1.37 1.37 1.38 1.38 1.31 1.18 1.12 1.01 0.87 0.69 0.60 0.58 0.57
0.51 0.53 0.45 0.40 0.36 0.36 0.49 0.64 0.68 0.35 0.34 0.53 0.61 0.72 0.78 0.70 0.72 0.81 0.89 0.95 1.17 1.29 1.41 1.51 1.46 1.36 1.35 1.39 1.44 1.37 1.43 1.39 1.40 1.38 1.29 1.17 1.16 1.06 0.86 0.64 0.60 0.59 0.61 0.62
0.47 0.47 0.46 0.51 0.43 0.37 0.71 0.69 0.49 0.52 0.64 0.67 0.71 0.76 0.77 0.88 0.92 0.92 0.95 0.95 1.13 1.29 1.44 1.45 1.44 1.46 1.54 1.53 1.52 1.44 1.43 1.43 1.38 1.29 1.17 1.14 1.04 0.89 0.65 0.60 0.62 0.63 0.62 0.59
0.47 0.55 0.52 0.53 0.50 0.72 0.83 0.76 0.82 0.84 0.71 0.74 0.78 0.83 0.87 0.91 0.95 1.00 1.00 1.10 1.21 1.33 1.46 1.52 1.46 1.52 1.53 1.56 1.59 1.47 1.39 1.34 1.26 1.17 1.11 1.02 0.86 0.70 0.65 0.63 0.63 0.60 0.61 0.59
0.65 0.73 0.56 0.57 0.62 0.66 0.78 0.86 0.87 0.88 0.84 0.87 0.87 0.84 0.91 0.92 1.05 1.04 1.08 1.15 1.18 1.29 1.45 1.53 1.50 1.55 1.55 1.59 1.56 1.44 1.39 1.36 1.24 1.12 1.02 0.86 0.71 0.63 0.63 0.64 0.62 0.58 0.58 0.58
0.70 0.71 0.56 0.50 0.55 0.60 0.70 0.79 0.83 0.89 0.92 0.94 0.98 0.95 0.92 1.00 1.04 1.08 1.10 1.16 1.26 1.29 1.44 1.58 1.53 1.56 1.48 1.52 1.41 1.41 1.35 1.25 1.11 0.95 0.84 0.70 0.58 0.57 0.58 0.57 0.56 0.55 0.60 0.62
0.73 0.62 0.52 0.44 0.59 0.59 0.61 0.77 0.89 0.86 0.87 0.97 0.98 0.97 1.04 1.09 1.10 1.14 1.10 1.16 1.28 1.39 1.55 1.57 1.58 1.45 1.42 1.41 1.34 1.27 1.19 1.06 0.89 0.77 0.67 0.56 0.56 0.59 0.57 0.55 0.55 0.65 0.67 0.65
Wind_Speed
9 7 7 6 7 5 2 1 1 1 1 2 0 2 3 5 6 6 6 6 6 7 7 7 9 9 9 9 9 8 8 9 8 8 8 9 10 10 10 9 11 9 10 12
10 11 9 6 4 3 1 2 2 1 1 1 2 5 5 5 6 9 9 8 8 8 7 7 7 8 9 9 9 8 8 8 8 7 8 9 9 10 11 11 10 10 9 9
13 12 10 6 4 3 2 3 3 2 2 2 4 4 4 5 5 7 10 11 11 11 11 10 9 9 9 10 10 9 8 9 9 9 8 9 10 10 9 10 10 10 10 10
16 15 12 8 7 5 4 7 4 4 2 3 4 5 4 4 6 8 9 10 12 12 12 12 12 11 11 11 10 10 10 10 11 10 11 11 11 12 13 12 12 10 10 10
15 15 13 10 9 8 6 5 3 2 2 4 4 3 6 5 5 8 9 11 13 14 13 13 13 13 12 12 12 12 11 11 12 12 12 13 15 16 16 16 15 13 12 11
14 12 13 13 9 9 5 3 3 3 4 4 6 2 5 6 7 8 9 11 11 12 12 13 13 13 13 12 12 12 12 12 13 15 14 13 14 19 19 17 14 13 12 13
14 16 13 12 10 9 7 4 5 5 5 7 6 5 10 8 9 7 7 7 9 9 10 11 11 13 12 12 13 13 12 12 14 15 18 17 18 23 19 23 18 13 10 10
15 17 16 14 13 11 9 9 7 8 6 7 6 8 8 7 7 6 6 6 5 6 9 8 10 12 12 11 13 13 13 15 18 18 16 15 13 15 12 10 5 6 7 8
14 16 15 16 14 11 10 10 10 6 7 7 7 9 11 7 8 7 7 7 7 6 5 6 7 8 9 9 10 11 12 14 15 16 15 17 13 12 7 6 5 6 9 11
15 13 18 15 14 11 11 8 7 8 7 9 9 9 7 7 6 5 5 6 6 6 4 4 4 5 3 4 7 9 10 12 13 12 12 9 10 8 8 8 9 9 9 9
16 12 15 16 17 16 11 10 6 7 7 8 8 9 8 9 6 5 6 6 5 5 5 5 5 5 4 4 3 5 7 9 8 8 9 9 9 8 8 7 7 7 8 9
18 13 17 21 15 14 14 13 10 8 12 10 10 12 9 10 7 6 6 5 5 5 4 5 7 6 6 5 4 4 5 5 7 7 7 8 9 8 8 8 7 8 8 8
16 13 11 13 14 14 14 13 10 9 9 13 10 13 10 9 7 8 8 6 6 5 5 5 6 5 5 4 3 3 4 5 6 6 6 7 7 8 8 8 8 9 9 10
16 13 14 15 17 14 14 14 11 9 8 9 12 14 13 12 12 10 9 8 7 7 6 7 7 6 5 4 4 3 4 5 4 5 5 6 7 8 9 9 10 11 12 13
17 16 15 16 15 15 16 15 14 13 12 10 12 11 14 14 15 13 11 9 8 8 7 7 7 7 7 5 4 4 4 4 4 5 6 7 8 10 10 11 12 14 15 16
14 14 15 15 14 15 15 17 18 15 13 15 14 15 14 11 9 10 12 12 10 9 7 7 8 8 7 6 5 4 4 4 4 5 6 8 9 11 13 15 16 17 18 19
11 12 11 14 11 12 13 19 21 17 15 13 12 15 12 11 12 13 11 11 11 11 10 9 10 9 8 7 6 6 6 6 7 8 9 10 12 14 17 18 19 20 21 21
11 11 12 13 11 11 16 15 19 20 17 16 15 14 14 13 12 11 11 10 9 10 10 10 12 11 9 8 8 7 8 8 10 11 12 14 16 17 19 20 21 22 22 22
13 12 11 12 13 14 12 10 11 15 19 17 16 13 12 10 10 11 12 11 10 10 11 11 13 13 11 10 10 9 10 10 11 13 14 15 17 18 20 21 23 23 22 22
12 12 13 13 12 14 14 12 10 13 18 16 16 13 12 12 12 13 14 13 11 11 10 11 13 13 12 11 10 10 11 12 13 14 15 16 17 19 21 22 22 22 21 20
14 14 13 14 15 16 14 13 12 10 13 14 17 16 15 15 14 13 14 14 12 11 10 10 12 12 12 11 11 11 11 12 14 14 15 17 19 21 22 22 21 21 20 21
18 16 17 14 14 16 13 12 13 14 14 14 15 17 17 14 14 13 13 13 12 12 12 12 13 13 12 12 11 11 12 13 14 15 17 19 21 22 21 21 20 20 20 21
19 19 17 18 17 16 15 16 16 15 15 15 14 16 17 16 15 14 14 14 15 14 14 13 12 12 12 11 11 11 13 14 15 17 18 19 21 21 21 21 20 20 21 22
21 20 20 19 19 20 20 19 18 16 16 17 16 14 18 20 18 17 16 15 15 15 16 15 13 12 11 11 12 13 14 14 16 17 18 20 21 21 20 20 20 21 22 23
19 18 20 23 24 24 23 22 20 18 17 17 16 16 15 18 18 16 15 16 15 16 17 17 15 13 12 11 12 13 14 15 16 18 20 21 20 19 18 18 20 21 22 24
20 20 18 18 18 16 19 20 20 19 18 19 18 18 19 19 18 18 17 17 16 16 16 17 16 14 13 12 12 13 14 16 17 19 20 19 18 17 18 19 19 21 23 24
Wind_Direction
226 219 228 222 238 285 284 274 259 49 125 124 198 204 198 201 211 207 207 205 208 215 215 210 221 225 228 230 232 228 231 237 243 250 254 263 267 272 276 277 282 284 270 261
225 226 224 227 248 243 266 204 250 247 182 248 282 272 247 231 229 217 219 226 230 232 230 226 220 222 226 227 230 234 236 238 242 254 261 267 274 277 278 280 283 280 276 268
215 221 215 224 240 234 228 199 210 222 235 298 311 300 246 250 262 240 239 240 241 238 238 241 235 234 237 237 237 236 242 245 248 255 268 274 275 279 280 280 283 284 277 275
224 224 226 227 237 214 240 227 229 212 252 273 328 300 275 255 254 257 254 245 240 241 242 245 242 243 240 239 243 246 252 253 257 261 265 272 277 275 276 275 277 280 278 277
220 213 213 222 232 217 244 209 223 233 248 295 300 317 275 285 283 270 259 256 250 247 244 242 241 240 241 245 245 250 257 261 261 262 269 281 285 287 280 274 273 275 276 275
215 216 214 216 230 217 227 239 272 274 277 296 301 251 297 286 283 278 277 256 254 246 242 239 244 245 246 246 249 251 258 265 266 264 275 286 292 304 282 275 275 275 274 279
222 218 223 220 228 228 226 229 272 284 290 259 285 268 273 290 291 283 271 276 272 251 246 247 249 234 250 255 247 250 261 270 270 272 277 283 292 310 307 272 263 273 290 275
214 227 213 220 217 219 220 219 227 245 263 273 276 268 286 290 291 283 272 284 270 254 239 263 255 245 253 264 250 252 264 276 280 280 285 275 290 340 333 4 285 259 295 301
212 227 221 221 216 211 228 234 237 248 283 283 275 286 297 274 289 284 283 268 258 258 261 263 261 243 245 261 251 260 269 283 291 292 289 279 302 327 333 346 326 310 314 311
219 217 217 217 216 227 227 231 250 265 249 261 278 284 266 302 286 275 280 264 265 260 243 242 238 209 239 290 249 266 283 295 301 305 311 314 317 323 325 325 317 310 314 317
214 215 219 213 220 218 229 241 266 242 241 244 267 269 266 277 266 256 267 257 263 250 251 229 207 215 249 275 283 288 300 308 313 320 324 330 334 334 331 330 330 326 322 322
215 213 222 223 224 228 229 233 239 242 249 259 258 269 277 275 264 248 246 252 256 245 244 238 227 235 244 248 278 299 314 318 321 326 335 340 345 346 346 341 335 333 330 329
207 220 221 237 231 228 231 236 242 248 256 249 253 270 273 265 258 252 240 243 246 249 251 246 228 229 229 230 254 298 313 315 322 332 343 348 352 353 346 341 338 334 331 327
206 216 211 221 222 220 229 231 237 242 257 260 258 269 264 254 255 246 240 241 246 245 246 238 228 229 225 233 259 287 308 314 324 334 342 345 344 342 340 333 328 326 324 321
211 220 220 231 223 229 232 234 231 239 251 251 267 257 271 258 246 237 237 240 243 232 237 230 221 222 229 239 256 281 301 314 315 321 326 329 332 333 331 327 322 320 319 318
224 229 226 234 224 233 239 244 239 246 255 265 269 270 274 283 231 226 230 229 237 231 233 226 222 224 226 237 253 268 279 291 304 315 320 322 326 326 325 321 318 316 315 314
220 220 224 230 235 237 259 251 243 242 247 251 260 265 262 259 243 227 223 223 232 235 228 230 225 222 226 240 249 257 263 272 288 302 304 308 314 317 319 317 315 314 313 311
223 227 230 230 240 250 263 265 250 239 246 252 270 269 258 258 248 231 228 228 232 228 232 240 230 231 238 249 255 259 269 281 291 298 298 303 308 313 315 315 314 313 311 310
234 229 235 234 241 259 267 269 253 247 249 252 264 268 256 241 227 235 231 234 229 235 239 241 230 228 241 252 259 264 275 282 292 297 299 304 308 311 313 313 312 311 310 310
236 238 234 239 242 244 256 261 261 253 256 257 257 254 237 229 233 244 228 229 233 243 249 237 229 231 241 250 253 265 276 285 291 295 299 303 307 310 313 314 313 312 312 311
244 247 240 244 248 259 253 264 247 246 261 263 256 249 234 240 248 235 223 232 239 245 240 235 224 232 240 248 252 268 278 286 292 297 299 304 308 311 314 314 314 313 313 312
238 238 243 245 247 256 248 249 243 257 268 271 265 243 249 249 237 229 226 232 243 242 242 236 237 241 242 245 255 268 278 286 291 296 300 304 308 311 312 314 313 313 313 313
242 238 240 238 245 250 250 252 258 260 264 268 267 248 239 237 232 237 234 240 246 242 236 233 235 237 243 247 255 270 281 286 290 297 302 306 309 311 311 311 311 312 312 311
247 240 242 249 249 253 254 253 255 258 262 268 261 255 241 229 232 241 248 243 245 236 231 228 229 235 241 250 262 276 282 286 293 299 304 308 309 310 310 311 312 313 313 313
244 241 246 253 257 256 254 254 257 261 266 267 258 248 237 226 232 240 243 245 240 231 229 229 230 234 245 256 271 279 284 290 297 303 307 309 309 310 312 314 315 314 315 315
241 242 241 249 250 249 253 252 255 258 261 263 260 249 237 233 235 240 243 235 231 228 229 226 228 238 250 261 271 280 286 293 300 307 308 308 308 311 312 314 316 318 318 318